{"data":{"norad_id":64385,"intl_designator":"2025-127R","name":"STARLINK-34100","alt_names":[],"object_type":"PAYLOAD","status":"ACTIVE","operator":null,"country":"US","launch_date":"2025-06-13","launch_site_code":"AFETR","launch_vehicle":null,"mission":null,"orbit_class":"UNKNOWN","rcs_meters":null,"size_class":null,"mass_kg":null,"dimensions":null,"purposes":["comms"],"wikipedia_slug":null,"has_3d_model":false,"image_url":null,"decayed_at":null,"tle_current":{"epoch":"2026-09-19T10:17:05.547552Z","epoch_age_seconds":226816,"freshness":"STALE","line1":"1 64385U 25127R   26262.42853643  .00013268  00000+0  49070-3 0  9998","line2":"2 64385  42.9986 165.9275 0001013 273.4314  86.6421 15.27586042 72040","mean_motion":15.27586042,"eccentricity":0.0001013,"inclination_deg":42.9986,"raan_deg":165.9275,"arg_perigee_deg":273.4314,"mean_anomaly_deg":86.6421,"bstar":0.0004907,"rev_number":7204,"period_min":94.266375864149,"perigee_km":482.33596785886,"apogee_km":483.72604049651,"semimajor_km":6861.1680041777,"source":"CELESTRAK","updated_at":"2026-09-21T09:00:35.325012Z"}}}